Total_Precipitation_Accumulation
0.14 0.17 0.66 0.51 0.18 0.15 0.29 0.22 0.50 0.76 0.69 1.02 1.77 1.97 1.82 1.76 1.25 1.11 1.00 0.92 0.99 1.52 1.16 1.05 1.16 1.10 1.04 1.28 1.41 1.68 1.61 1.48 1.51 1.76 1.84 1.37 1.25 1.28 1.66 1.63 1.66 1.86 1.89 1.95
0.17 0.09 0.42 0.45 0.15 0.11 0.14 0.17 0.33 0.49 0.45 1.04 0.82 0.56 0.53 0.64 0.96 0.84 0.96 0.85 0.70 0.97 1.45 0.86 0.70 0.78 0.81 1.04 1.24 1.20 1.31 1.27 1.26 1.17 1.18 1.20 1.16 1.02 1.09 1.34 1.45 1.54 1.75 2.15
1.02 0.20 0.83 1.38 0.77 0.50 0.36 0.45 0.31 0.43 0.62 0.80 0.43 0.19 0.13 0.11 0.20 0.39 0.47 0.56 0.47 0.49 1.07 1.08 0.81 0.79 0.72 0.90 1.06 1.02 1.14 1.21 1.07 0.96 0.93 0.95 0.93 0.90 0.86 1.00 1.15 1.39 1.57 1.59
1.77 1.22 2.77 1.33 0.65 0.68 0.89 0.67 0.78 0.73 0.76 0.54 0.29 0.22 0.16 0.18 0.15 0.15 0.18 0.29 0.49 0.58 0.81 1.06 0.75 0.63 0.62 0.70 0.97 0.96 0.91 0.97 1.00 0.89 0.82 0.87 0.80 0.79 0.77 0.77 0.76 0.68 0.67 0.68
3.02 2.38 1.50 0.46 0.25 0.30 0.52 0.46 0.35 0.52 0.51 0.27 0.16 0.20 0.21 0.16 0.21 0.21 0.26 0.36 0.44 0.44 0.48 1.05 1.03 0.88 0.92 0.83 0.95 1.07 0.96 0.98 0.96 0.89 0.77 0.85 0.93 1.03 1.01 0.93 0.83 0.70 0.56 0.48
3.70 3.15 1.52 0.54 0.32 0.14 0.39 0.79 0.43 0.36 0.36 0.26 0.21 0.42 0.65 0.57 0.49 0.38 0.41 0.26 0.19 0.16 0.32 0.76 1.25 1.17 1.49 1.29 1.22 1.18 1.04 1.02 1.02 1.00 1.06 1.10 1.11 1.18 1.19 1.06 1.03 1.10 1.02 0.81
2.16 3.03 1.59 0.20 0.23 0.34 1.30 1.40 0.73 0.49 0.51 0.47 0.59 0.63 0.65 0.52 0.31 0.28 0.24 0.27 0.24 0.22 0.33 0.51 1.05 1.40 1.61 1.85 1.65 1.54 1.41 1.24 1.40 1.27 1.09 0.96 0.93 0.85 1.04 1.08 1.10 1.22 1.41 1.44
1.62 2.37 1.79 0.24 0.34 0.98 1.67 1.00 0.85 0.75 0.52 0.49 0.70 0.78 0.60 0.54 0.41 0.43 0.48 0.50 0.34 0.25 0.31 0.49 0.64 1.12 1.45 1.80 1.91 1.84 1.99 1.92 1.72 2.01 1.83 1.52 1.22 1.02 0.88 1.23 1.66 1.75 1.68 1.67
1.28 1.23 0.68 0.50 0.57 0.45 0.27 0.23 0.23 0.51 0.68 0.70 0.55 0.66 0.86 1.34 0.91 0.58 0.68 0.72 0.58 0.46 0.41 0.46 0.60 0.87 1.24 1.53 1.49 1.66 1.83 2.20 2.25 2.10 2.16 1.87 1.66 1.47 1.37 1.22 1.27 1.51 1.75 1.92
1.57 0.91 0.40 0.40 0.39 0.22 0.26 0.35 0.27 0.37 0.41 0.57 0.57 0.42 0.49 0.58 0.60 0.73 1.09 0.99 0.76 0.65 0.69 0.78 0.83 1.05 1.53 1.68 1.64 1.64 1.65 1.53 1.52 1.70 1.84 1.96 2.05 2.02 1.91 1.94 1.93 2.08 2.26 2.51
1.82 1.18 0.76 0.50 0.49 0.58 0.48 0.46 0.45 0.42 0.45 0.47 0.60 0.47 0.49 0.58 0.41 0.45 0.65 0.75 0.97 0.98 1.10 1.23 1.47 1.69 1.82 1.60 1.22 1.03 0.83 0.69 0.69 0.91 1.17 1.46 1.91 2.49 2.55 2.82 2.83 2.73 2.84 2.79
2.34 1.69 1.71 1.24 0.86 0.82 0.86 0.52 0.27 0.31 0.43 0.66 0.67 0.54 0.33 0.33 0.33 0.31 0.45 0.68 0.86 1.02 1.14 1.32 1.31 1.34 1.25 1.23 0.95 0.60 0.52 0.51 0.61 0.61 0.78 1.06 1.44 2.06 2.86 3.26 3.28 3.25 3.30 3.17
1.41 1.67 1.59 1.47 0.95 0.72 0.66 0.72 0.59 0.51 0.53 0.73 0.75 0.42 0.26 0.29 0.33 0.42 0.42 0.53 0.75 1.06 1.21 1.45 1.64 1.80 1.79 1.42 1.46 1.39 0.89 0.83 0.95 1.08 1.16 1.38 1.61 1.85 2.44 2.97 3.11 3.27 3.28 3.24
0.81 1.06 1.13 1.05 0.79 0.41 0.45 0.54 0.56 0.55 0.46 0.52 0.71 0.77 0.60 0.50 0.51 0.50 0.62 0.64 0.67 0.80 1.14 1.23 1.07 1.14 1.31 1.36 1.51 1.72 1.85 1.77 1.74 1.95 2.04 2.07 2.07 2.16 2.18 2.18 2.11 2.12 2.11 1.96
0.48 0.57 0.81 0.80 1.06 0.75 0.52 0.66 0.80 0.58 0.42 0.50 0.58 0.84 0.82 0.90 0.85 0.96 1.10 1.02 0.87 0.80 0.87 0.84 0.78 0.86 0.83 0.82 0.90 1.07 1.31 1.51 1.41 1.37 1.28 1.22 1.15 1.18 1.18 1.19 1.17 1.19 1.11 1.03
0.71 0.63 0.69 0.84 0.98 1.01 0.69 0.63 0.72 0.83 0.75 0.56 0.46 0.66 0.77 0.79 0.89 1.00 1.00 0.81 0.67 0.78 0.69 0.67 0.80 0.99 0.96 0.93 0.87 0.91 0.97 1.10 1.02 0.99 1.06 0.97 0.82 0.73 0.70 0.68 0.71 0.66 0.63 0.70
1.25 1.17 0.91 0.84 0.70 0.81 0.67 0.49 0.56 0.70 0.58 0.50 0.67 0.64 0.77 0.97 0.88 0.76 0.84 0.80 0.66 0.69 0.79 0.87 1.23 1.24 1.10 1.05 1.00 1.03 0.95 0.91 0.83 0.69 0.65 0.62 0.59 0.57 0.55 0.62 0.63 0.59 0.52 0.54
1.54 1.72 1.17 0.80 0.60 0.68 0.66 0.58 0.62 0.78 0.87 0.84 0.85 0.97 1.12 1.04 1.04 1.13 1.07 0.78 0.73 0.87 1.04 1.18 1.10 1.01 0.92 0.91 0.78 0.72 0.65 0.60 0.54 0.53 0.51 0.48 0.43 0.39 0.44 0.47 0.47 0.50 0.52 0.64
1.62 1.90 1.45 0.97 0.82 0.77 0.77 0.88 0.89 0.97 1.15 1.23 1.25 1.51 1.53 1.58 1.57 1.64 1.41 1.16 1.14 1.07 1.37 1.09 0.88 0.68 0.62 0.59 0.43 0.37 0.40 0.41 0.39 0.39 0.39 0.37 0.39 0.38 0.45 0.47 0.49 0.52 0.52 0.55
1.36 1.71 1.51 1.54 1.59 1.36 1.54 1.71 1.61 1.71 1.88 1.57 1.47 1.59 1.72 1.91 1.73 1.53 1.26 1.15 1.14 1.11 0.91 0.67 0.48 0.37 0.31 0.27 0.23 0.24 0.28 0.30 0.32 0.31 0.34 0.35 0.36 0.40 0.44 0.51 0.55 0.55 0.53 0.56
1.48 1.51 1.50 1.48 1.90 2.03 1.97 2.00 1.63 1.73 2.04 1.63 1.36 1.51 1.40 1.43 1.26 1.10 0.89 0.81 0.97 0.67 0.46 0.34 0.25 0.19 0.13 0.14 0.13 0.18 0.25 0.30 0.33 0.37 0.40 0.46 0.49 0.49 0.47 0.40 0.42 0.45 0.47 0.49
1.12 1.12 1.22 1.05 0.91 1.38 1.53 1.34 0.99 1.07 1.08 1.05 0.92 0.89 0.80 0.89 0.81 0.68 0.62 0.56 0.54 0.33 0.23 0.17 0.13 0.11 0.10 0.11 0.15 0.22 0.26 0.32 0.35 0.40 0.47 0.48 0.49 0.45 0.42 0.37 0.39 0.39 0.39 0.41
0.87 0.73 0.74 0.65 0.51 0.72 0.79 0.69 0.68 0.53 0.56 0.59 0.60 0.60 0.53 0.54 0.52 0.45 0.47 0.37 0.17 0.13 0.10 0.14 0.16 0.16 0.15 0.19 0.24 0.30 0.34 0.40 0.45 0.48 0.50 0.51 0.52 0.49 0.45 0.42 0.41 0.44 0.50 0.55
0.61 0.58 0.63 0.59 0.46 0.36 0.46 0.64 0.49 0.47 0.43 0.47 0.49 0.50 0.44 0.42 0.40 0.22 0.18 0.16 0.15 0.14 0.16 0.23 0.23 0.20 0.22 0.35 0.39 0.41 0.43 0.48 0.50 0.54 0.54 0.54 0.58 0.59 0.62 0.62 0.59 0.63 0.67 0.65
0.67 0.67 0.66 0.62 0.51 0.58 0.54 0.55 0.42 0.43 0.39 0.39 0.36 0.30 0.25 0.23 0.35 0.31 0.20 0.22 0.20 0.24 0.32 0.34 0.31 0.31 0.39 0.46 0.51 0.52 0.54 0.55 0.54 0.57 0.59 0.64 0.66 0.68 0.68 0.66 0.63 0.62 0.63 0.63
0.72 0.66 0.67 0.63 0.58 0.54 0.50 0.45 0.44 0.44 0.35 0.33 0.39 0.35 0.34 0.30 0.29 0.27 0.28 0.28 0.28 0.31 0.38 0.42 0.39 0.41 0.49 0.50 0.53 0.51 0.52 0.53 0.52 0.55 0.57 0.61 0.64 0.63 0.62 0.63 0.63 0.61 0.63 0.61
0.65 0.59 0.51 0.46 0.48 0.44 0.39 0.36 0.37 0.38 0.35 0.37 0.52 0.48 0.38 0.35 0.31 0.30 0.34 0.39 0.40 0.43 0.46 0.47 0.47 0.45 0.49 0.52 0.49 0.48 0.52 0.54 0.53 0.56 0.58 0.61 0.61 0.64 0.68 0.68 0.65 0.62 0.59 0.61